NUA515 DNPO-DNMM

Flight info

Callsign NUA515
Flight time 0h 46m
Altitude 28000
Route AKDIT1S AKDIT DCT BEN DCT OK UL433 EDGOT EDGOT1N
Aircraft A320/M-SDE3FGHIRWY/LB1

Departure

Time 2026-05-04 14:39
Airport Port Harcourt International Airport (DNPO)

Arrival

Time 2026-05-04 15:26
Airport Murtala Muhammed International Airport (DNMM)
Time Latitude Longitude Altitude Speed Heading
2026-05-04 14:21 5.01484 6.95289 149 ft 0 kts 118°
2026-05-04 14:29 5.01486 6.95285 149 ft 2 kts 118°
2026-05-04 14:30 5.01493 6.95271 148 ft 2 kts 118°
2026-05-04 14:30 5.01500 6.95258 148 ft 2 kts 118°
2026-05-04 14:30 5.01515 6.95232 147 ft 2 kts 118°
2026-05-04 14:31 5.01522 6.95219 147 ft 2 kts 118°
2026-05-04 14:31 5.01533 6.95197 147 ft 2 kts 95°
2026-05-04 14:32 5.01522 6.95170 146 ft 1 kts 36°
2026-05-04 14:32 5.01516 6.95166 146 ft 1 kts 24°
2026-05-04 14:32 5.01513 6.95165 146 ft 0 kts 27°
2026-05-04 14:34 5.01514 6.95165 146 ft 0 kts 27°
2026-05-04 14:34 5.01520 6.95169 146 ft 2 kts 28°
2026-05-04 14:34 5.01546 6.95183 147 ft 6 kts 29°
2026-05-04 14:35 5.01604 6.95214 146 ft 12 kts 29°
2026-05-04 14:35 5.01694 6.95262 145 ft 16 kts 27°
2026-05-04 14:35 5.01803 6.95321 142 ft 18 kts 28°
2026-05-04 14:35 5.01922 6.95385 141 ft 19 kts 28°
2026-05-04 14:36 5.02041 6.95449 140 ft 19 kts 28°
2026-05-04 14:36 5.02164 6.95514 141 ft 19 kts 28°
2026-05-04 14:36 5.02281 6.95577 142 ft 18 kts 28°
2026-05-04 14:36 5.02391 6.95637 144 ft 17 kts 28°
2026-05-04 14:37 5.02495 6.95694 146 ft 16 kts 28°
2026-05-04 14:37 5.02582 6.95739 148 ft 11 kts 26°
2026-05-04 14:37 5.02649 6.95728 148 ft 10 kts 308°
2026-05-04 14:37 5.02688 6.95657 146 ft 12 kts 297°
2026-05-04 14:38 5.02710 6.95591 145 ft 9 kts 259°
2026-05-04 14:38 5.02682 6.95561 145 ft 0 kts 208°
2026-05-04 14:38 5.02658 6.95549 146 ft 20 kts 208°
2026-05-04 14:38 5.02311 6.95364 142 ft 90 kts 208°
2026-05-04 14:39 5.01563 6.94962 148 ft 148 kts 208°
2026-05-04 14:39 5.00535 6.94417 332 ft 178 kts 207°
2026-05-04 14:39 4.99439 6.93844 958 ft 177 kts 208°
2026-05-04 14:40 4.97348 6.92693 2213 ft 168 kts 208°
2026-05-04 14:40 4.96361 6.92086 2638 ft 170 kts 224°
2026-05-04 14:40 4.95934 6.91004 3032 ft 173 kts 278°
2026-05-04 14:40 4.96490 6.89967 3400 ft 178 kts 318°
2026-05-04 14:41 4.97508 6.89156 3691 ft 192 kts 322°
2026-05-04 14:41 4.98595 6.88283 3984 ft 208 kts 321°
2026-05-04 14:41 5.01027 6.86206 4594 ft 248 kts 320°
2026-05-04 14:42 5.03773 6.83767 5508 ft 277 kts 320°
2026-05-04 14:42 5.05202 6.82484 6241 ft 279 kts 320°
2026-05-04 14:42 5.06658 6.81170 6979 ft 283 kts 321°
2026-05-04 14:43 5.08132 6.79840 7659 ft 288 kts 322°
2026-05-04 14:43 5.09631 6.78489 8352 ft 292 kts 322°
2026-05-04 14:43 5.11141 6.77127 9033 ft 296 kts 323°
2026-05-04 14:43 5.12681 6.75738 9711 ft 299 kts 324°
2026-05-04 14:44 5.14242 6.74336 10342 ft 304 kts 323°
2026-05-04 14:44 5.15847 6.72898 10676 ft 320 kts 323°
2026-05-04 14:44 5.17580 6.71346 10961 ft 338 kts 323°
2026-05-04 14:44 5.19363 6.69744 11296 ft 351 kts 323°
2026-05-04 14:45 5.21183 6.68101 11863 ft 356 kts 322°
2026-05-04 14:45 5.23041 6.66419 12504 ft 359 kts 323°
2026-05-04 14:45 5.24908 6.64730 13103 ft 362 kts 322°
2026-05-04 14:45 5.26759 6.63058 13686 ft 364 kts 322°
2026-05-04 14:46 5.28659 6.61345 14227 ft 368 kts 322°
2026-05-04 14:46 5.30573 6.59618 14752 ft 372 kts 322°
2026-05-04 14:46 5.32507 6.57873 15265 ft 376 kts 321°
2026-05-04 14:46 5.34460 6.56107 15749 ft 379 kts 321°
2026-05-04 14:47 5.36436 6.54321 16232 ft 383 kts 321°
2026-05-04 14:47 5.38425 6.52523 16692 ft 386 kts 320°
2026-05-04 14:47 5.40411 6.50728 17144 ft 389 kts 320°
2026-05-04 14:47 5.42441 6.48892 17586 ft 392 kts 320°
2026-05-04 14:48 5.44463 6.47062 18025 ft 394 kts 320°
2026-05-04 14:48 5.46508 6.45210 18470 ft 396 kts 320°
2026-05-04 14:48 5.48549 6.43363 18889 ft 398 kts 320°
2026-05-04 14:48 5.50610 6.41497 19303 ft 400 kts 320°
2026-05-04 14:49 5.52696 6.39608 19705 ft 402 kts 320°
2026-05-04 14:49 5.54784 6.37720 20098 ft 404 kts 320°
2026-05-04 14:49 5.56882 6.35821 20472 ft 406 kts 320°
2026-05-04 14:49 5.58939 6.33898 20814 ft 409 kts 317°
2026-05-04 14:50 5.60913 6.31831 21167 ft 412 kts 314°
2026-05-04 14:50 5.62835 6.29689 21532 ft 413 kts 313°
2026-05-04 14:50 5.64753 6.27531 21881 ft 414 kts 313°
2026-05-04 14:50 5.66678 6.25360 22220 ft 416 kts 313°
2026-05-04 14:51 5.68588 6.23208 22573 ft 417 kts 313°
2026-05-04 14:51 5.70535 6.21015 22916 ft 419 kts 313°
2026-05-04 14:51 5.72482 6.18823 23232 ft 421 kts 313°
2026-05-04 14:51 5.74429 6.16631 23548 ft 424 kts 313°
2026-05-04 14:52 5.76402 6.14411 23865 ft 426 kts 313°
2026-05-04 14:52 5.78395 6.12169 24172 ft 428 kts 313°
2026-05-04 14:52 5.80364 6.09954 24462 ft 430 kts 313°
2026-05-04 14:52 5.82371 6.07695 24764 ft 433 kts 313°
2026-05-04 14:53 5.84388 6.05424 25067 ft 435 kts 313°
2026-05-04 14:53 5.86388 6.03174 25375 ft 436 kts 313°
2026-05-04 14:53 5.88423 6.00883 25679 ft 438 kts 313°
2026-05-04 14:53 5.90435 5.98616 25974 ft 440 kts 313°
2026-05-04 14:54 5.92478 5.96316 26260 ft 441 kts 313°
2026-05-04 14:54 5.94522 5.94013 26546 ft 443 kts 313°
2026-05-04 14:54 5.96598 5.91674 26828 ft 445 kts 313°
2026-05-04 14:54 5.98658 5.89353 27103 ft 447 kts 313°
2026-05-04 14:55 6.00725 5.87024 27367 ft 448 kts 313°
2026-05-04 14:55 6.02815 5.84668 27613 ft 451 kts 313°
2026-05-04 14:55 6.04887 5.82335 27817 ft 453 kts 313°
2026-05-04 14:55 6.06986 5.79968 27843 ft 453 kts 313°
2026-05-04 14:56 6.09086 5.77599 27843 ft 453 kts 313°
2026-05-04 14:56 6.11184 5.75231 27847 ft 452 kts 313°
2026-05-04 14:56 6.13264 5.72883 27843 ft 452 kts 313°
2026-05-04 14:56 6.15360 5.70517 27846 ft 452 kts 313°
2026-05-04 14:57 6.17453 5.68153 27844 ft 452 kts 313°
2026-05-04 14:57 6.19531 5.65807 27843 ft 451 kts 313°
2026-05-04 14:57 6.21620 5.63447 27845 ft 451 kts 313°
2026-05-04 14:57 6.23697 5.61102 27845 ft 451 kts 313°
2026-05-04 14:58 6.25776 5.58730 27847 ft 451 kts 310°
2026-05-04 14:58 6.27600 5.56149 27845 ft 452 kts 302°
2026-05-04 14:58 6.29025 5.53341 27846 ft 453 kts 293°
2026-05-04 14:58 6.30050 5.50380 27849 ft 453 kts 288°
2026-05-04 14:59 6.30936 5.47344 27844 ft 454 kts 287°
2026-05-04 14:59 6.31807 5.44268 27845 ft 453 kts 286°
2026-05-04 14:59 6.33530 5.38214 27847 ft 453 kts 287°
2026-05-04 15:00 6.34409 5.35157 27847 ft 453 kts 287°
2026-05-04 15:00 6.35285 5.32125 27850 ft 453 kts 287°
2026-05-04 15:00 6.36169 5.29071 27857 ft 453 kts 287°
2026-05-04 15:01 6.37927 5.23009 27867 ft 453 kts 287°
2026-05-04 15:01 6.38807 5.19976 27867 ft 453 kts 287°
2026-05-04 15:01 6.39687 5.16942 27869 ft 453 kts 287°
2026-05-04 15:01 6.40562 5.13925 27870 ft 453 kts 287°
2026-05-04 15:02 6.41447 5.10875 27870 ft 453 kts 287°
2026-05-04 15:02 6.42332 5.07824 27869 ft 453 kts 286°
2026-05-04 15:02 6.43139 5.04794 27870 ft 452 kts 283°
2026-05-04 15:02 6.43784 5.01680 27872 ft 451 kts 281°
2026-05-04 15:03 6.44371 4.98602 27870 ft 451 kts 281°
2026-05-04 15:03 6.44959 4.95517 27869 ft 452 kts 281°
2026-05-04 15:03 6.45562 4.92404 27869 ft 452 kts 281°
2026-05-04 15:03 6.46166 4.89334 27869 ft 451 kts 281°
2026-05-04 15:04 6.46781 4.86241 27868 ft 451 kts 281°
2026-05-04 15:04 6.47403 4.83131 27867 ft 451 kts 281°
2026-05-04 15:04 6.48016 4.80069 27867 ft 451 kts 281°
2026-05-04 15:04 6.48634 4.76989 27868 ft 451 kts 281°
2026-05-04 15:05 6.49260 4.73866 27865 ft 451 kts 281°
2026-05-04 15:05 6.49881 4.70769 27865 ft 451 kts 281°
2026-05-04 15:05 6.50493 4.67713 27866 ft 451 kts 281°
2026-05-04 15:05 6.51120 4.64584 27865 ft 451 kts 281°
2026-05-04 15:06 6.51729 4.61545 27865 ft 450 kts 281°
2026-05-04 15:06 6.52352 4.58434 27866 ft 450 kts 281°
2026-05-04 15:06 6.52965 4.55368 27866 ft 450 kts 281°
2026-05-04 15:07 6.54194 4.49212 27794 ft 450 kts 281°
2026-05-04 15:07 6.54810 4.46131 27195 ft 452 kts 281°
2026-05-04 15:07 6.55454 4.43026 26166 ft 458 kts 283°
2026-05-04 15:07 6.56259 4.39927 25403 ft 456 kts 287°
2026-05-04 15:08 6.57224 4.36911 24861 ft 449 kts 290°
2026-05-04 15:08 6.58253 4.34000 24316 ft 444 kts 290°
2026-05-04 15:08 6.59295 4.31095 23778 ft 438 kts 290°
2026-05-04 15:08 6.60324 4.28223 23247 ft 433 kts 290°
2026-05-04 15:09 6.61332 4.25412 22726 ft 428 kts 290°
2026-05-04 15:09 6.62329 4.22621 22208 ft 424 kts 291°
2026-05-04 15:09 6.63329 4.19814 21695 ft 420 kts 291°
2026-05-04 15:10 6.65281 4.14337 20661 ft 414 kts 291°
2026-05-04 15:10 6.66245 4.11633 20147 ft 412 kts 291°
2026-05-04 15:10 6.68155 4.06268 19099 ft 408 kts 291°
2026-05-04 15:11 6.69115 4.03571 18577 ft 406 kts 291°
2026-05-04 15:11 6.70060 4.00915 18066 ft 404 kts 291°
2026-05-04 15:11 6.71005 3.98259 17551 ft 403 kts 292°
2026-05-04 15:11 6.71937 3.95639 17029 ft 401 kts 292°
2026-05-04 15:12 6.72875 3.93000 16530 ft 400 kts 292°
2026-05-04 15:12 6.73808 3.90374 16012 ft 399 kts 292°
2026-05-04 15:12 6.74742 3.87745 15486 ft 398 kts 292°
2026-05-04 15:12 6.75675 3.85122 14965 ft 397 kts 292°
2026-05-04 15:13 6.76598 3.82521 14443 ft 396 kts 292°
2026-05-04 15:13 6.77519 3.79927 14076 ft 390 kts 292°
2026-05-04 15:13 6.78420 3.77387 13864 ft 384 kts 292°
2026-05-04 15:13 6.79307 3.74891 13649 ft 380 kts 292°
2026-05-04 15:14 6.80199 3.72381 13453 ft 376 kts 292°
2026-05-04 15:14 6.81071 3.69923 13282 ft 374 kts 292°
2026-05-04 15:14 6.81939 3.67481 13060 ft 370 kts 292°
2026-05-04 15:14 6.83016 3.65162 12583 ft 361 kts 311°
2026-05-04 15:15 6.84841 3.63576 12325 ft 338 kts 338°
2026-05-04 15:15 6.87052 3.62982 11778 ft 325 kts
2026-05-04 15:15 6.89318 3.62909 11272 ft 324 kts
2026-05-04 15:16 6.93670 3.61673 10330 ft 333 kts 336°
2026-05-04 15:16 6.95664 3.60509 9885 ft 331 kts 334°
2026-05-04 15:16 6.99370 3.57823 8801 ft 333 kts 310°
2026-05-04 15:17 7.00304 3.55676 7944 ft 339 kts 281°
2026-05-04 15:17 6.99207 3.51293 6583 ft 329 kts 232°
2026-05-04 15:17 6.97539 3.49734 6328 ft 326 kts 214°
2026-05-04 15:18 6.95655 3.48471 6030 ft 320 kts 213°
2026-05-04 15:18 6.93794 3.47240 5667 ft 315 kts 213°
2026-05-04 15:18 6.91994 3.46022 5323 ft 310 kts 214°
2026-05-04 15:19 6.88575 3.43647 4481 ft 285 kts 214°
2026-05-04 15:19 6.86999 3.42539 4128 ft 270 kts 214°
2026-05-04 15:19 6.84021 3.40443 3514 ft 254 kts 214°
2026-05-04 15:20 6.82650 3.39348 3387 ft 244 kts 224°
2026-05-04 15:20 6.81532 3.38026 3380 ft 250 kts 233°
2026-05-04 15:20 6.80513 3.36599 3099 ft 252 kts 234°
2026-05-04 15:20 6.79515 3.35162 2863 ft 247 kts 234°
2026-05-04 15:21 6.78548 3.33791 2830 ft 233 kts 229°
2026-05-04 15:21 6.77283 3.32872 2753 ft 218 kts 197°
2026-05-04 15:21 6.74345 3.32638 2348 ft 208 kts 177°
2026-05-04 15:22 6.72919 3.32697 2288 ft 198 kts 177°
2026-05-04 15:22 6.71567 3.32735 2391 ft 187 kts 178°
2026-05-04 15:22 6.69025 3.32765 1868 ft 179 kts 179°
2026-05-04 15:23 6.67819 3.32777 1642 ft 163 kts 179°
2026-05-04 15:23 6.66733 3.32790 1425 ft 150 kts 178°
2026-05-04 15:23 6.65716 3.32803 1242 ft 139 kts 178°
2026-05-04 15:23 6.64767 3.32817 1071 ft 135 kts 179°
2026-05-04 15:24 6.62883 3.32840 747 ft 134 kts 179°
2026-05-04 15:24 6.61016 3.32868 404 ft 133 kts 179°
2026-05-04 15:25 6.60087 3.32878 245 ft 132 kts 179°
2026-05-04 15:25 6.59168 3.32891 137 ft 126 kts 178°
2026-05-04 15:25 6.58427 3.32901 119 ft 81 kts 179°
2026-05-04 15:26 6.57928 3.32925 108 ft 11 kts 115°
2026-05-04 15:26 6.57925 3.33010 108 ft 10 kts 90°
2026-05-04 15:26 6.58017 3.33048 111 ft 7 kts
2026-05-04 15:27 6.58072 3.33048 112 ft 8 kts 359°
2026-05-04 15:27 6.58229 3.33044 114 ft 12 kts 359°
2026-05-04 15:28 6.58364 3.33074 118 ft 8 kts 76°
2026-05-04 15:28 6.58373 3.33130 119 ft 7 kts 57°
2026-05-04 15:28 6.58432 3.33155 122 ft 2 kts 46°
2026-05-04 15:29 6.58442 3.33171 123 ft 3 kts 66°
2026-05-04 15:30 6.58451 3.33196 125 ft 0 kts 72°